This is the latest recevied weather packets stored in our database for station/object AD7ZD. If no packets are shown the sender has not sent any weather packets the latest 10 day(s).
| Time | Temp. | Humidity | Pressure | Rain* | Wind** | Luminosity | Snow |
|---|---|---|---|---|---|---|---|
| 1778042618 | 16.67° C | 48% | 1012.6 hPa | 0 mm | - | 0 W/m² | - |
| 1778042314 | 16.67° C | 47% | 1011.8 hPa | 0 mm | - | 0 W/m² | - |
| 1778042011 | 16.67° C | 47% | 1011.8 hPa | 0 mm | - | 0 W/m² | - |
| 1778041710 | 16.67° C | 47% | 1011.7 hPa | 0 mm | - | 0 W/m² | - |
| 1778041408 | 16.11° C | 48% | 1011.9 hPa | 0 mm | - | 0 W/m² | - |
| 1778041107 | 15.56° C | 53% | 1011.6 hPa | 0 mm | - | 0 W/m² | - |
| 1778040804 | 15.56° C | 52% | 1011.3 hPa | 0 mm | - | 0 W/m² | - |
| 1778040503 | 15.56° C | 54% | 1011.3 hPa | 0 mm | - | 0 W/m² | - |
| 1778040198 | 15° C | 56% | 1011.3 hPa | 0 mm | - | 0 W/m² | - |
| 1778039894 | 15.56° C | 53% | 1011.1 hPa | 0 mm | - | 0 W/m² | - |
| 1778039592 | 15.56° C | 52% | 1010.9 hPa | 0 mm | - | 0 W/m² | - |
| 1778039289 | 16.11° C | 49% | 1010.8 hPa | 0 mm | - | 0 W/m² | - |
| 1778038986 | 16.11° C | 48% | 1010.8 hPa | 0 mm | - | 0 W/m² | - |
| 1778038683 | 16.67° C | 46% | 1010.6 hPa | 0 mm | - | 0 W/m² | - |
| 1778038380 | 16.67° C | 46% | 1010.6 hPa | 0 mm | - | 0 W/m² | - |
| 1778038076 | 16.67° C | 46% | 1010.6 hPa | 0 mm | - | 0 W/m² | - |
| 1778037773 | 16.67° C | 46% | 1010.4 hPa | 0 mm | - | 0 W/m² | - |
| 1778037470 | 16.67° C | 47% | 1010.4 hPa | 0 mm | - | 0 W/m² | - |
| 1778037167 | 16.67° C | 46% | 1010.2 hPa | 0 mm | - | 0 W/m² | - |
| 1778036865 | 16.67° C | 46% | 1010.4 hPa | 0 mm | - | 0 W/m² | - |
| 1778036563 | 16.67° C | 47% | 1010.1 hPa | 0 mm | - | 0 W/m² | - |
| 1778036260 | 16.67° C | 48% | 1010.4 hPa | 0 mm | - | 0 W/m² | - |
| 1778035956 | 16.67° C | 47% | 1010.1 hPa | 0 mm | - | 0 W/m² | - |
| 1778035653 | 16.67° C | 47% | 1010.2 hPa | 0 mm | - | 1 W/m² | - |
| 1778035350 | 16.67° C | 47% | 1010.2 hPa | 0 mm | - | 7 W/m² | - |
* Rain latest hour (hover to see other rain measurements)
** Current wind speed in m/s (hover to see current wind gust speed)